Fitchburg, MA

6:36 PM EDT on July 23, 2017 (GMT -0400)
Fitchburg Municipal

Weather History for KFIT - January, 2013

Change the Weather History Date:

Wednesday, January 2, 2013

  Actual Average (KORH) Record (KORH)
Temperature  
Mean Temperature 15 °F -  
Max Temperature 27 °F 33 °F 60 °F (1892)
Min Temperature 3 °F 18 °F -7 °F (1899)
Degree Days  
Heating Degree Days 50    
Moisture  
Dew Point 4 °F    
Average Humidity 59    
Maximum Humidity 84    
Minimum Humidity 46    
Precipitation  
Precipitation 0.00 in - - ()
Sea Level Pressure  
Sea Level Pressure 30.00 in    
Wind  
Wind Speed 5 mph (NW)    
Max Wind Speed 22 mph    
Max Gust Speed 31 mph    
Visibility 10 miles    
Events      
Averages and records for this station are not official NWS values.
T = Trace of Precipitation, MM = Missing Value Source: NWS Daily Summary

Daily Weather History Graph

Daily Weather History Graph

Search for Another Location

Airport or City:

Trip Planner

Search our weather history database for the weather conditions in past years. The results will help you decide how hot, cold, wet, or windy it might be!

Date:

Astronomy

Jan. 02, 2013 Rise Set
Actual Time 7:16 AM EST 4:25 PM EST
Civil Twilight 6:45 AM EST 4:57 PM EST
Nautical Twilight 6:09 AM EST 5:32 PM EST
Astronomical Twilight 5:35 AM EST 6:07 PM EST
Moon 10:02 PM EST (1/2) 9:50 AM EST (1/2)
Length of Visible Light 10h 12m
Length of Day
9h 08m
Waning Gibbous, 75% of the Moon is Illuminated
Jan 2
Waning Gibbous
Jan 4
Last Quarter
Jan 11
New
Jan 18
First Quarter
Jan 26
Full

Hourly Weather History & Observations

Time (EST) Temp. Windchill Dew Point Humidity Pressure Visibility Wind Dir Wind Speed Gust Speed Precip Events Conditions
12:52 AM 12.9 °F - 1.0 °F 59% 29.94 in 10.0 mi Calm Calm - N/A   Clear
1:52 AM 10.0 °F - -0.0 °F 64% 29.96 in 10.0 mi Calm Calm - N/A   Clear
2:52 AM 8.1 °F - 1.0 °F 73% 29.98 in 10.0 mi Calm Calm - N/A   Clear
3:52 AM 3.0 °F - -0.9 °F 84% 29.96 in 10.0 mi Calm Calm - N/A   Clear
4:52 AM 3.0 °F - -2.0 °F 80% 29.95 in 10.0 mi Calm Calm - N/A   Clear
5:52 AM 3.9 °F - -2.0 °F 76% 29.95 in 10.0 mi Calm Calm - N/A   Clear
6:52 AM 12.9 °F 5.2 °F 1.9 °F 62% 29.95 in 10.0 mi WNW 4.6 mph - N/A   Clear
7:52 AM 12.9 °F - 3.9 °F 67% 29.95 in 10.0 mi Calm Calm - N/A   Mostly Cloudy
8:52 AM 17.1 °F 10.0 °F 5.0 °F 59% 29.95 in 10.0 mi WNW 4.6 mph - N/A   Overcast
10:52 AM 25.0 °F 14.2 °F 10.0 °F 53% 29.95 in 10.0 mi West 11.5 mph 23.0 mph N/A   Overcast
11:52 AM 25.0 °F 13.1 °F 10.9 °F 55% 29.92 in 10.0 mi WNW 13.8 mph 25.3 mph N/A   Overcast
12:52 PM 26.1 °F 15.6 °F 10.9 °F 53% 29.92 in 10.0 mi West 11.5 mph 23.0 mph N/A   Overcast
1:52 PM 27.0 °F 16.1 °F 10.9 °F 51% 29.93 in 10.0 mi WNW 12.7 mph 26.5 mph N/A   Overcast
2:52 PM 27.0 °F 12.8 °F 10.0 °F 49% 29.95 in 10.0 mi NW 21.9 mph 31.1 mph N/A   Mostly Cloudy
3:52 PM 25.0 °F 14.2 °F 8.1 °F 49% 29.99 in 10.0 mi WNW 11.5 mph 21.9 mph N/A   Clear
4:52 PM 24.1 °F 14.4 °F 6.1 °F 46% 30.02 in 10.0 mi NW 9.2 mph - N/A   Clear
5:52 PM 19.9 °F 10.1 °F 7.0 °F 57% 30.04 in 10.0 mi NW 8.1 mph - N/A   Clear
6:52 PM 19.0 °F 11.1 °F 7.0 °F 59% 30.06 in 10.0 mi North 5.8 mph - N/A   Clear
7:52 PM 17.1 °F 6.6 °F 3.0 °F 54% 30.08 in 10.0 mi NNW 8.1 mph - N/A   Clear
8:52 PM 16.0 °F 2.9 °F -0.0 °F 49% 30.10 in 10.0 mi NNW 11.5 mph - N/A   Clear
9:52 PM 14.0 °F 0.5 °F -0.0 °F 54% 30.11 in 10.0 mi NW 11.5 mph 17.3 mph N/A   Clear
10:52 PM 10.9 °F -3.4 °F -2.0 °F 56% 30.12 in 10.0 mi NW 11.5 mph 19.6 mph N/A   Clear
11:52 PM 9.0 °F -4.2 °F -4.0 °F 56% 30.12 in 10.0 mi NW 9.2 mph - N/A   Clear